User: anonymous   Login
Location: Caltech
(34.1382°N, 118.1253°W)
Time: 01:41:59
(UTC-07:00)
Language:

Cosmos 1758 Rocket - Orbit

View from above orbital plane
View from above orbital plane
View from above satellite
View from above satellite

Ground track
Ground track

The orbit data is extracted from the following two-line orbital elements,

1 16792U 86046B   18113.94282726 +.00000088 +00000-0 +77981-5 0  9996
2 16792 082.4810 269.9877 0023986 353.5505 120.5481 14.83176472699853
Epoch (UTC): 23 April 2018 22:37:40
Eccentricity: 0.0023986
inclination: 82.4810°
perigee height: 602 km
apogee height: 636 km
right ascension of ascending node: 269.9877°
argument of perigee: 353.5505°
revolutions per day: 14.83176472
mean anomaly at epoch: 120.5481°
orbit number at epoch: 69985

The dashed part of the orbit path shows where the satellite is in the earth's shadow,  

DLR